| time (UTC) | temp F | wind direction | speed knots | gust knots | rain 1hr in | rain 24hr in | rain mn in | humidity % | barometer mb |
| 20260831092436 | 73 | 63 | 0.0 | 0.0 | 0.00 | 0.00 | 0.00 | 92 | 1017.4 |
| 20260831091931 | 73 | 63 | 0.0 | 0.0 | 0.00 | 0.00 | 0.00 | 92 | 1017.4 |
| 20260831091427 | 73 | 63 | 0.0 | 0.0 | 0.00 | 0.00 | 0.00 | 92 | 1017.3 |
| 20260831090922 | 73 | 63 | 0.0 | 0.0 | 0.00 | 0.00 | 0.00 | 92 | 1017.4 |
| 20260831090418 | 74 | 62 | 0.0 | 0.0 | 0.00 | 0.00 | 0.00 | 92 | 1017.2 |
| 20260831085914 | 74 | 62 | 0.0 | 0.0 | 0.00 | 0.00 | 0.00 | 91 | 1017.1 |
| 20260831085408 | 74 | 62 | 0.0 | 0.0 | 0.00 | 0.00 | 0.00 | 91 | 1017.1 |
| 20260831084908 | 74 | 62 | 0.0 | 0.0 | 0.00 | 0.00 | 0.00 | 91 | 1017.1 |
| 20260831084404 | 74 | 62 | 0.0 | 0.0 | 0.00 | 0.00 | 0.00 | 91 | 1016.9 |
| 20260831083900 | 74 | 62 | 0.0 | 0.0 | 0.00 | 0.00 | 0.00 | 91 | 1017.2 |
| 20260831083355 | 74 | 62 | 0.0 | 0.0 | 0.00 | 0.00 | 0.00 | 91 | 1017.2 |
| 20260831082854 | 74 | 62 | 0.0 | 0.0 | 0.00 | 0.00 | 0.00 | 91 | 1017.0 |
| 20260831082349 | 74 | 62 | 0.0 | 0.0 | 0.00 | 0.00 | 0.00 | 90 | 1017.0 |
| 20260831081845 | 74 | 62 | 0.0 | 0.0 | 0.00 | 0.00 | 0.00 | 91 | 1016.9 |
| 20260831081340 | 74 | 62 | 0.0 | 0.0 | 0.00 | 0.00 | 0.00 | 90 | 1017.0 |
| 20260831080836 | 74 | 62 | 0.0 | 0.0 | 0.00 | 0.00 | 0.00 | 90 | 1016.7 |
| 20260831080336 | 74 | 62 | 0.0 | 0.0 | 0.00 | 0.00 | 0.00 | 90 | 1016.8 |
| 20260831075832 | 75 | 62 | 0.0 | 0.0 | 0.00 | 0.00 | 0.00 | 90 | 1016.8 |
| 20260831075326 | 75 | 62 | 0.0 | 0.0 | 0.00 | 0.00 | 0.00 | 90 | 1017.1 |
| 20260831074821 | 75 | 62 | 0.0 | 0.0 | 0.00 | 0.00 | 0.00 | 90 | 1017.2 |
| 20260831074320 | 75 | 62 | 0.0 | 0.0 | 0.00 | 0.00 | 0.00 | 90 | 1017.0 |
| 20260831073816 | 75 | 62 | 0.0 | 0.0 | 0.00 | 0.00 | 0.00 | 90 | 1016.9 |
| 20260831073315 | 75 | 62 | 0.0 | 0.0 | 0.00 | 0.00 | 0.00 | 90 | 1016.9 |
| 20260831072811 | 75 | 62 | 0.0 | 0.0 | 0.00 | 0.00 | 0.00 | 89 | 1017.2 |
| 20260831072307 | 75 | 62 | 0.0 | 0.0 | 0.00 | 0.00 | 0.00 | 89 | 1017.2 |
| 20260831071802 | 75 | 62 | 0.0 | 0.0 | 0.00 | 0.00 | 0.00 | 89 | 1017.0 |
| 20260831071256 | 75 | 61 | 0.0 | 0.0 | 0.00 | 0.00 | 0.00 | 90 | 1017.2 |
| 20260831070756 | 75 | 62 | 0.0 | 0.0 | 0.00 | 0.00 | 0.00 | 90 | 1017.1 |
| 20260831070255 | 75 | 61 | 0.0 | 0.0 | 0.00 | 0.00 | 0.00 | 90 | 1017.0 |
| 20260831065754 | 75 | 62 | 0.0 | 0.0 | 0.00 | 0.00 | 0.00 | 90 | 1017.1 |
| 20260831065252 | 75 | 62 | 0.0 | 0.0 | 0.00 | 0.00 | 0.00 | 90 | 1017.2 |
| 20260831064748 | 75 | 62 | 0.0 | 0.0 | 0.00 | 0.00 | 0.00 | 90 | 1017.3 |
| 20260831064243 | 75 | 61 | 0.0 | 0.0 | 0.00 | 0.00 | 0.00 | 90 | 1017.1 |
| 20260831063739 | 75 | 61 | 0.0 | 0.0 | 0.00 | 0.00 | 0.00 | 90 | 1017.2 |
| 20260831063234 | 75 | 62 | 0.0 | 0.0 | 0.00 | 0.00 | 0.00 | 89 | 1017.2 |
| 20260831062733 | 75 | 61 | 0.0 | 0.0 | 0.00 | 0.00 | 0.00 | 89 | 1017.0 |
| 20260831062229 | 76 | 61 | 0.0 | 0.0 | 0.00 | 0.00 | 0.00 | 88 | 1017.1 |
| 20260831061726 | 76 | 61 | 0.0 | 0.0 | 0.00 | 0.00 | 0.00 | 88 | 1017.1 |
| 20260831061222 | 76 | 62 | 0.0 | 0.0 | 0.00 | 0.00 | 0.00 | 88 | 1017.1 |
| 20260831060719 | 76 | 62 | 0.0 | 0.0 | 0.00 | 0.00 | 0.00 | 87 | 1017.0 |
| 20260831060219 | 76 | 61 | 0.0 | 0.0 | 0.00 | 0.00 | 0.00 | 88 | 1017.3 |
| 20260831055718 | 76 | 61 | 0.0 | 0.0 | 0.00 | 0.00 | 0.00 | 88 | 1017.2 |
| 20260831055213 | 76 | 61 | 0.0 | 0.0 | 0.00 | 0.00 | 0.00 | 88 | 1017.2 |
| 20260831054713 | 76 | 61 | 0.0 | 0.0 | 0.00 | 0.00 | 0.00 | 88 | 1017.3 |
| 20260831054209 | 76 | 61 | 0.0 | 0.0 | 0.00 | 0.00 | 0.00 | 88 | 1017.3 |
| 20260831053708 | 77 | 61 | 0.0 | 0.0 | 0.00 | 0.00 | 0.00 | 87 | 1017.4 |
| 20260831053206 | 77 | 62 | 0.0 | 0.0 | 0.00 | 0.00 | 0.00 | 87 | 1017.2 |
| 20260831052706 | 77 | 61 | 0.0 | 0.0 | 0.00 | 0.00 | 0.00 | 87 | 1017.3 |
| 20260831052206 | 77 | 61 | 0.0 | 0.0 | 0.00 | 0.00 | 0.00 | 87 | 1017.2 |
| 20260831051704 | 77 | 61 | 0.0 | 0.0 | 0.00 | 0.00 | 0.00 | 87 | 1017.5 |
| 20260831051203 | 77 | 61 | 0.0 | 0.0 | 0.00 | 0.00 | 0.00 | 86 | 1017.3 |
| 20260831050703 | 77 | 62 | 0.0 | 0.0 | 0.00 | 0.00 | 0.00 | 86 | 1017.3 |
| 20260831050202 | 77 | 61 | 0.0 | 0.0 | 0.00 | 0.00 | 0.00 | 86 | 1017.3 |
| 20260831045657 | 77 | 61 | 0.0 | 0.0 | 0.00 | 0.00 | 0.00 | 86 | 1017.3 |
| 20260831045151 | 78 | 62 | 0.0 | 0.0 | 0.00 | 0.00 | 0.00 | 85 | 1017.3 |
| 20260831044646 | 78 | 62 | 0.0 | 0.0 | 0.00 | 0.00 | 0.00 | 85 | 1017.2 |
| 20260831044141 | 78 | 62 | 0.0 | 0.0 | 0.00 | 0.00 | 0.00 | 85 | 1017.3 |
| 20260831043637 | 78 | 62 | 0.0 | 0.0 | 0.00 | 0.00 | 0.00 | 84 | 1017.3 |
| 20260831043132 | 78 | 68 | 0.0 | 0.0 | 0.00 | 0.00 | 0.00 | 84 | 1017.4 |
| 20260831042631 | 79 | 50 | 0.0 | 0.0 | 0.00 | 0.00 | 0.00 | 84 | 1017.3 |
| 20260831042126 | 79 | 50 | 0.0 | 0.0 | 0.00 | 0.00 | 0.00 | 84 | 1017.3 |
| 20260831041621 | 79 | 55 | 0.0 | 0.0 | 0.00 | 0.00 | 0.00 | 84 | 1017.4 |
| 20260831041121 | 79 | 63 | 0.0 | 0.0 | 0.00 | 0.00 | 0.00 | 84 | 1017.3 |
| 20260831040616 | 79 | 63 | 0.0 | 0.0 | 0.00 | 0.00 | 0.00 | 84 | 1017.2 |
| 20260831040115 | 79 | 62 | 0.0 | 0.0 | 0.00 | 0.00 | 0.00 | 83 | 1017.3 |
| 20260831035614 | 79 | 62 | 0.0 | 0.0 | 0.00 | 0.00 | 0.00 | 83 | 1017.2 |
| 20260831035109 | 79 | 67 | 0.0 | 0.0 | 0.00 | 0.00 | 0.00 | 83 | 1017.2 |
| 20260831034608 | 79 | 61 | 0.0 | 0.0 | 0.00 | 0.00 | 0.00 | 83 | 1017.3 |
| 20260831034103 | 79 | 61 | 0.0 | 0.0 | 0.00 | 0.00 | 0.00 | 83 | 1017.0 |
| 20260831033558 | 79 | 61 | 0.0 | 0.0 | 0.00 | 0.00 | 0.00 | 83 | 1017.0 |
| 20260831033048 | 80 | 62 | 0.0 | 0.0 | 0.00 | 0.00 | 0.00 | 82 | 1017.2 |
| 20260831032547 | 80 | 62 | 0.0 | 0.0 | 0.00 | 0.00 | 0.00 | 82 | 1017.1 |
| 20260831032043 | 80 | 61 | 0.0 | 0.0 | 0.00 | 0.00 | 0.00 | 81 | 1017.1 |
| 20260831031542 | 80 | 61 | 0.0 | 0.0 | 0.00 | 0.00 | 0.00 | 81 | 1017.3 |
| 20260831031042 | 80 | 62 | 0.0 | 0.0 | 0.00 | 0.00 | 0.00 | 81 | 1017.0 |
| 20260831030541 | 80 | 63 | 0.0 | 0.0 | 0.00 | 0.00 | 0.00 | 80 | 1017.1 |
| 20260831030040 | 81 | 56 | 0.0 | 0.0 | 0.00 | 0.00 | 0.00 | 80 | 1017.0 |
| 20260831025538 | 81 | 56 | 0.0 | 0.0 | 0.00 | 0.00 | 0.00 | 79 | 1017.0 |
| 20260831025034 | 81 | 67 | 0.0 | 0.0 | 0.00 | 0.00 | 0.00 | 79 | 1017.0 |
| 20260831024530 | 82 | 108 | 0.9 | 1.7 | 0.00 | 0.00 | 0.00 | 78 | 1017.1 |
| 20260831024029 | 82 | 42 | 0.0 | 0.0 | 0.00 | 0.00 | 0.00 | 78 | 1017.0 |
| 20260831023528 | 82 | 49 | 0.0 | 0.0 | 0.00 | 0.00 | 0.00 | 78 | 1016.9 |
| 20260831023027 | 82 | 56 | 0.0 | 0.0 | 0.00 | 0.00 | 0.00 | 77 | 1017.0 |
| 20260831022527 | 82 | 53 | 0.0 | 0.9 | 0.00 | 0.00 | 0.00 | 77 | 1017.1 |
| 20260831022023 | 82 | 53 | 0.0 | 0.0 | 0.00 | 0.00 | 0.00 | 77 | 1017.0 |
| 20260831021521 | 82 | 67 | 0.0 | 0.0 | 0.00 | 0.00 | 0.00 | 76 | 1016.9 |
| 20260831021018 | 82 | 58 | 0.0 | 0.0 | 0.00 | 0.00 | 0.00 | 77 | 1016.8 |
| 20260831020513 | 82 | 68 | 0.0 | 0.0 | 0.00 | 0.00 | 0.00 | 76 | 1016.9 |
| 20260831020007 | 82 | 70 | 0.0 | 0.9 | 0.00 | 0.00 | 0.00 | 76 | 1016.9 |
| 20260831015503 | 82 | 71 | 0.0 | 0.0 | 0.00 | 0.00 | 0.00 | 76 | 1016.7 |
| 20260831014958 | 83 | 70 | 0.0 | 0.0 | 0.00 | 0.00 | 0.00 | 76 | 1016.6 |
| 20260831014452 | 83 | 71 | 0.0 | 0.0 | 0.00 | 0.00 | 0.00 | 76 | 1016.4 |
| 20260831013948 | 83 | 69 | 0.0 | 0.0 | 0.00 | 0.00 | 0.00 | 75 | 1016.6 |
| 20260831013443 | 82 | 54 | 0.0 | 0.0 | 0.00 | 0.00 | 0.00 | 75 | 1016.4 |
| 20260831012938 | 82 | 57 | 0.0 | 0.0 | 0.00 | 0.00 | 0.00 | 76 | 1016.1 |
| 20260831012433 | 82 | 57 | 0.0 | 0.0 | 0.00 | 0.00 | 0.00 | 75 | 1016.1 |
| 20260831011932 | 83 | 50 | 0.0 | 0.0 | 0.00 | 0.00 | 0.00 | 76 | 1016.1 |
| 20260831011427 | 82 | 73 | 0.9 | 0.9 | 0.00 | 0.00 | 0.00 | 75 | 1016.1 |
| 20260831010923 | 83 | 62 | 0.0 | 0.0 | 0.00 | 0.00 | 0.00 | 75 | 1016.0 |
| 20260831010418 | 83 | 62 | 0.0 | 0.0 | 0.00 | 0.00 | 0.00 | 74 | 1016.0 |
| 20260831005913 | 83 | 62 | 0.0 | 0.0 | 0.00 | 0.00 | 0.00 | 73 | 1015.9 |
| 20260831005409 | 84 | 62 | 0.0 | 0.0 | 0.00 | 0.00 | 0.00 | 72 | 1016.0 |
| 20260831004903 | 84 | 62 | 0.0 | 0.0 | 0.00 | 0.00 | 0.00 | 71 | 1016.1 |
| 20260831004359 | 85 | 62 | 0.0 | 0.0 | 0.00 | 0.00 | 0.00 | 70 | 1016.0 |
| 20260831003855 | 85 | 56 | 0.0 | 0.0 | 0.00 | 0.00 | 0.00 | 70 | 1015.9 |
| 20260831003351 | 85 | 61 | 0.0 | 0.0 | 0.00 | 0.00 | 0.00 | 69 | 1015.9 |
| 20260831002850 | 85 | 69 | 0.0 | 0.0 | 0.00 | 0.00 | 0.00 | 68 | 1016.1 |
| 20260831002349 | 86 | 60 | 0.0 | 0.0 | 0.00 | 0.00 | 0.00 | 67 | 1016.1 |
| 20260831001845 | 86 | 61 | 0.0 | 0.0 | 0.00 | 0.00 | 0.00 | 66 | 1016.1 |
| 20260831001345 | 86 | 69 | 0.0 | 0.0 | 0.00 | 0.00 | 0.00 | 65 | 1016.1 |
| 20260831000843 | 86 | 67 | 0.0 | 0.9 | 0.00 | 0.00 | 0.00 | 65 | 1016.1 |
| 20260831000340 | 86 | 60 | 0.0 | 0.0 | 0.00 | 0.00 | 0.00 | 64 | 1016.3 |
| 20260830235836 | 87 | 61 | 0.0 | 0.0 | 0.00 | 0.00 | 0.00 | 62 | 1016.4 |
| 20260830235331 | 87 | 54 | 0.0 | 0.0 | 0.00 | 0.00 | 0.00 | 63 | 1016.0 |
| 20260830234827 | 88 | 54 | 0.0 | 0.0 | 0.00 | 0.00 | 0.00 | 63 | 1016.1 |
| 20260830234322 | 88 | 54 | 0.0 | 0.0 | 0.00 | 0.00 | 0.00 | 61 | 1015.9 |
| 20260830233818 | 89 | 52 | 0.0 | 0.0 | 0.00 | 0.00 | 0.00 | 59 | 1015.8 |
| 20260830233313 | 90 | 67 | 0.0 | 0.0 | 0.00 | 0.00 | 0.00 | 62 | 1015.9 |
| 20260830232808 | 91 | 60 | 0.0 | 0.0 | 0.00 | 0.00 | 0.00 | 57 | 1016.0 |
| 20260830232306 | 91 | 47 | 0.0 | 0.0 | 0.00 | 0.00 | 0.00 | 56 | 1015.9 |
| 20260830231800 | 91 | 54 | 0.0 | 0.0 | 0.00 | 0.00 | 0.00 | 57 | 1016.0 |
| 20260830231300 | 91 | 50 | 0.0 | 0.0 | 0.00 | 0.00 | 0.00 | 54 | 1016.0 |
| 20260830230755 | 92 | 61 | 0.0 | 0.0 | 0.00 | 0.00 | 0.00 | 53 | 1016.0 |
| 20260830230250 | 93 | 60 | 0.0 | 0.0 | 0.00 | 0.00 | 0.00 | 55 | 1016.0 |
| 20260830225750 | 93 | 64 | 0.0 | 0.0 | 0.00 | 0.00 | 0.00 | 52 | 1016.0 |
| 20260830225245 | 93 | 73 | 0.0 | 0.9 | 0.00 | 0.00 | 0.00 | 52 | 1015.9 |
| 20260830224744 | 93 | 49 | 0.0 | 0.9 | 0.00 | 0.00 | 0.00 | 52 | 1016.1 |
| 20260830224239 | 94 | 221 | 2.6 | 2.6 | 0.00 | 0.00 | 0.00 | 50 | 1015.9 |
| 20260830223736 | 94 | 58 | 0.0 | 0.0 | 0.00 | 0.00 | 0.00 | 49 | 1015.8 |
| 20260830223232 | 93 | 84 | 0.9 | 0.9 | 0.00 | 0.00 | 0.00 | 49 | 1015.8 |
| 20260830222726 | 93 | 57 | 0.0 | 0.0 | 0.00 | 0.00 | 0.00 | 51 | 1015.8 |
| 20260830222221 | 92 | 50 | 0.0 | 0.0 | 0.00 | 0.00 | 0.00 | 58 | 1015.9 |
| 20260830221717 | 91 | 48 | 0.0 | 0.0 | 0.00 | 0.00 | 0.00 | 53 | 1015.8 |
| 20260830221214 | 93 | 67 | 0.0 | 0.9 | 0.00 | 0.00 | 0.00 | 51 | 1015.9 |
| 20260830220709 | 94 | 51 | 0.9 | 0.9 | 0.00 | 0.00 | 0.00 | 49 | 1015.9 |
| 20260830220207 | 95 | 38 | 0.9 | 0.9 | 0.00 | 0.00 | 0.00 | 47 | 1015.9 |
| 20260830215707 | 96 | 213 | 1.7 | 3.5 | 0.00 | 0.00 | 0.00 | 44 | 1015.8 |
| 20260830215201 | 96 | 66 | 0.0 | 0.9 | 0.00 | 0.00 | 0.00 | 47 | 1015.9 |
| 20260830214657 | 95 | 43 | 0.9 | 1.7 | 0.00 | 0.00 | 0.00 | 47 | 1015.8 |
| 20260830214156 | 96 | 79 | 2.6 | 3.5 | 0.00 | 0.00 | 0.00 | 47 | 1016.0 |
| 20260830213656 | 96 | 53 | 0.9 | 1.7 | 0.00 | 0.00 | 0.00 | 45 | 1016.0 |
| 20260830213151 | 97 | 60 | 0.9 | 1.7 | 0.00 | 0.00 | 0.00 | 48 | 1016.1 |
| 20260830212647 | 96 | 46 | 2.6 | 3.5 | 0.00 | 0.00 | 0.00 | 45 | 1016.1 |
| 20260830212142 | 96 | 72 | 0.9 | 0.9 | 0.00 | 0.00 | 0.00 | 49 | 1016.4 |
| 20260830211637 | 95 | 46 | 0.0 | 0.0 | 0.00 | 0.00 | 0.00 | 45 | 1016.5 |
| 20260830211136 | 97 | 139 | 1.7 | 1.7 | 0.00 | 0.00 | 0.00 | 46 | 1016.5 |
| 20260830210632 | 97 | 9 | 1.7 | 1.7 | 0.00 | 0.00 | 0.00 | 45 | 1016.4 |
| 20260830210131 | 97 | 39 | 0.9 | 0.9 | 0.00 | 0.00 | 0.00 | 45 | 1016.5 |
| 20260830205628 | 96 | 46 | 1.7 | 2.6 | 0.00 | 0.00 | 0.00 | 42 | 1016.5 |
| 20260830205124 | 97 | 210 | 1.7 | 1.7 | 0.00 | 0.00 | 0.00 | 44 | 1016.5 |
| 20260830204624 | 97 | 28 | 1.7 | 1.7 | 0.00 | 0.00 | 0.00 | 43 | 1016.4 |
| 20260830204122 | 97 | 273 | 1.7 | 3.5 | 0.00 | 0.00 | 0.00 | 45 | 1016.3 |
| 20260830203619 | 97 | 48 | 0.9 | 0.9 | 0.00 | 0.00 | 0.00 | 44 | 1016.6 |
| 20260830203119 | 98 | 196 | 1.7 | 1.7 | 0.00 | 0.00 | 0.00 | 44 | 1016.7 |
| 20260830202619 | 97 | 53 | 0.0 | 0.9 | 0.00 | 0.00 | 0.00 | 41 | 1016.8 |
| 20260830202114 | 97 | 15 | 1.7 | 1.7 | 0.00 | 0.00 | 0.00 | 42 | 1016.8 |
| 20260830201613 | 97 | 279 | 3.5 | 3.5 | 0.00 | 0.00 | 0.00 | 47 | 1017.1 |
| 20260830201108 | 96 | 194 | 3.5 | 5.2 | 0.00 | 0.00 | 0.00 | 47 | 1017.0 |
| 20260830200604 | 95 | 100 | 0.9 | 1.7 | 0.00 | 0.00 | 0.00 | 47 | 1017.1 |
| 20260830200103 | 95 | 67 | 0.9 | 1.7 | 0.00 | 0.00 | 0.00 | 46 | 1016.9 |
| 20260830195559 | 95 | 287 | 4.3 | 6.1 | 0.00 | 0.00 | 0.00 | 44 | 1017.1 |
| 20260830195056 | 95 | 76 | 0.9 | 1.7 | 0.00 | 0.00 | 0.00 | 47 | 1017.1 |
| 20260830194551 | 95 | 117 | 1.7 | 1.7 | 0.00 | 0.00 | 0.00 | 46 | 1017.0 |
| 20260830194051 | 94 | 357 | 1.7 | 1.7 | 0.00 | 0.00 | 0.00 | 49 | 1017.2 |
| 20260830193550 | 95 | 18 | 1.7 | 2.6 | 0.00 | 0.00 | 0.00 | 47 | 1017.3 |
| 20260830193045 | 96 | 33 | 0.9 | 1.7 | 0.00 | 0.00 | 0.00 | 47 | 1017.3 |
| 20260830192541 | 95 | 75 | 1.7 | 2.6 | 0.00 | 0.00 | 0.00 | 45 | 1017.5 |
| 20260830192036 | 93 | 51 | 0.9 | 0.9 | 0.00 | 0.00 | 0.00 | 53 | 1017.4 |
| 20260830191531 | 92 | 101 | 0.0 | 1.7 | 0.00 | 0.00 | 0.00 | 50 | 1017.7 |
| 20260830191026 | 93 | 14 | 1.7 | 1.7 | 0.00 | 0.00 | 0.00 | 48 | 1017.7 |
| 20260830190521 | 95 | 32 | 1.7 | 1.7 | 0.00 | 0.00 | 0.00 | 47 | 1017.7 |
| 20260830190016 | 95 | 90 | 2.6 | 2.6 | 0.00 | 0.00 | 0.00 | 45 | 1017.5 |
| 20260830185510 | 94 | 35 | 1.7 | 2.6 | 0.00 | 0.00 | 0.00 | 47 | 1017.6 |
| 20260830185006 | 94 | 46 | 0.9 | 1.7 | 0.00 | 0.00 | 0.00 | 51 | 1018.0 |
| 20260830184504 | 94 | 269 | 3.5 | 3.5 | 0.00 | 0.00 | 0.00 | 46 | 1018.0 |
| 20260830184000 | 94 | 302 | 5.2 | 7.0 | 0.00 | 0.00 | 0.00 | 45 | 1018.0 |
| 20260830183459 | 95 | 318 | 5.2 | 7.0 | 0.00 | 0.00 | 0.00 | 45 | 1018.0 |
| 20260830182949 | 93 | 265 | 0.9 | 2.6 | 0.00 | 0.00 | 0.00 | 51 | 1017.9 |
| 20260830182444 | 93 | 197 | 0.9 | 2.6 | 0.00 | 0.00 | 0.00 | 47 | 1018.3 |
| 20260830181940 | 93 | 342 | 2.6 | 2.6 | 0.00 | 0.00 | 0.00 | 47 | 1018.2 |
| 20260830181437 | 93 | 14 | 2.6 | 3.5 | 0.00 | 0.00 | 0.00 | 46 | 1018.5 |
| 20260830180930 | 93 | 297 | 2.6 | 3.5 | 0.00 | 0.00 | 0.00 | 44 | 1018.3 |
| 20260830180430 | 93 | 325 | 1.7 | 3.5 | 0.00 | 0.00 | 0.00 | 47 | 1018.2 |
| 20260830175929 | 94 | 86 | 0.9 | 1.7 | 0.00 | 0.00 | 0.00 | 48 | 1018.3 |
| 20260830175429 | 94 | 256 | 4.3 | 7.0 | 0.00 | 0.00 | 0.00 | 46 | 1018.4 |
| 20260830174924 | 93 | 29 | 0.9 | 0.9 | 0.00 | 0.00 | 0.00 | 48 | 1018.3 |
| 20260830174420 | 93 | 254 | 3.5 | 5.2 | 0.00 | 0.00 | 0.00 | 48 | 1018.3 |
| 20260830173915 | 93 | 152 | 1.7 | 1.7 | 0.00 | 0.00 | 0.00 | 49 | 1018.3 |
| 20260830173410 | 92 | 313 | 2.6 | 2.6 | 0.00 | 0.00 | 0.00 | 50 | 1018.4 |
| 20260830172906 | 93 | 317 | 5.2 | 7.0 | 0.00 | 0.00 | 0.00 | 48 | 1018.4 |
| 20260830172402 | 93 | 244 | 5.2 | 7.0 | 0.00 | 0.00 | 0.00 | 50 | 1018.5 |
| 20260830171857 | 93 | 33 | 3.5 | 6.1 | 0.00 | 0.00 | 0.00 | 47 | 1018.5 |
| 20260830171353 | 92 | 127 | 0.9 | 1.7 | 0.00 | 0.00 | 0.00 | 51 | 1018.6 |
| 20260830170848 | 92 | 318 | 6.1 | 7.0 | 0.00 | 0.00 | 0.00 | 48 | 1018.6 |
| 20260830170347 | 93 | 296 | 3.5 | 6.1 | 0.00 | 0.00 | 0.00 | 50 | 1018.6 |
| 20260830165846 | 92 | 90 | 1.7 | 1.7 | 0.00 | 0.00 | 0.00 | 52 | 1018.5 |
| 20260830165342 | 92 | 66 | 1.7 | 2.6 | 0.00 | 0.00 | 0.00 | 51 | 1018.7 |
| 20260830164838 | 91 | 112 | 1.7 | 2.6 | 0.00 | 0.00 | 0.00 | 50 | 1018.7 |
| 20260830164334 | 91 | 268 | 2.6 | 2.6 | 0.00 | 0.00 | 0.00 | 50 | 1018.9 |
| 20260830163831 | 92 | 298 | 3.5 | 3.5 | 0.00 | 0.00 | 0.00 | 50 | 1018.8 |
| 20260830163326 | 91 | 151 | 1.7 | 2.6 | 0.00 | 0.00 | 0.00 | 53 | 1018.8 |
| 20260830162821 | 91 | 281 | 4.3 | 6.1 | 0.00 | 0.00 | 0.00 | 49 | 1018.9 |
| 20260830162318 | 91 | 66 | 0.0 | 0.9 | 0.00 | 0.00 | 0.00 | 53 | 1018.9 |
| 20260830161817 | 91 | 236 | 3.5 | 3.5 | 0.00 | 0.00 | 0.00 | 50 | 1018.9 |
| 20260830161316 | 92 | 290 | 1.7 | 2.6 | 0.00 | 0.00 | 0.00 | 48 | 1018.9 |
| 20260830160812 | 92 | 47 | 1.7 | 1.7 | 0.00 | 0.00 | 0.00 | 50 | 1018.9 |
| 20260830160313 | 92 | 322 | 1.7 | 1.7 | 0.00 | 0.00 | 0.00 | 50 | 1018.7 |
| 20260830155808 | 91 | 57 | 0.0 | 0.9 | 0.00 | 0.00 | 0.00 | 50 | 1018.9 |
| 20260830155306 | 91 | 80 | 0.0 | 0.9 | 0.00 | 0.00 | 0.00 | 51 | 1018.6 |
| 20260830154805 | 91 | 301 | 2.6 | 2.6 | 0.00 | 0.00 | 0.00 | 49 | 1018.8 |
| 20260830154300 | 91 | 59 | 0.0 | 0.0 | 0.00 | 0.00 | 0.00 | 51 | 1018.8 |
| 20260830153757 | 90 | 77 | 1.7 | 1.7 | 0.00 | 0.00 | 0.00 | 54 | 1018.8 |
| 20260830153252 | 89 | 34 | 0.9 | 0.9 | 0.00 | 0.00 | 0.00 | 55 | 1018.7 |
| 20260830152750 | 89 | 183 | 1.7 | 3.5 | 0.00 | 0.00 | 0.00 | 55 | 1018.7 |
| 20260830152245 | 89 | 15 | 0.9 | 0.9 | 0.00 | 0.00 | 0.00 | 54 | 1018.9 |
| 20260830151745 | 89 | 172 | 0.9 | 0.9 | 0.00 | 0.00 | 0.00 | 56 | 1018.7 |
| 20260830151244 | 90 | 319 | 1.7 | 2.6 | 0.00 | 0.00 | 0.00 | 55 | 1018.5 |
| 20260830150740 | 89 | 289 | 2.6 | 2.6 | 0.00 | 0.00 | 0.00 | 59 | 1018.7 |
| 20260830150240 | 88 | 33 | 0.0 | 0.9 | 0.00 | 0.00 | 0.00 | 64 | 1018.8 |
| 20260830145740 | 87 | 56 | 0.0 | 0.0 | 0.00 | 0.00 | 0.00 | 61 | 1019.0 |
| 20260830145235 | 86 | 23 | 0.9 | 0.9 | 0.00 | 0.00 | 0.00 | 65 | 1019.0 |
| 20260830144729 | 86 | 24 | 1.7 | 1.7 | 0.00 | 0.00 | 0.00 | 63 | 1018.7 |
| 20260830144226 | 86 | 334 | 1.7 | 3.5 | 0.00 | 0.00 | 0.00 | 65 | 1018.8 |
| 20260830143722 | 85 | 53 | 0.9 | 0.9 | 0.00 | 0.00 | 0.00 | 66 | 1018.9 |
| 20260830143219 | 84 | 37 | 0.9 | 1.7 | 0.00 | 0.00 | 0.00 | 68 | 1018.8 |
| 20260830142715 | 84 | 113 | 1.7 | 1.7 | 0.00 | 0.00 | 0.00 | 69 | 1018.8 |
| 20260830142210 | 84 | 237 | 1.7 | 1.7 | 0.00 | 0.00 | 0.00 | 68 | 1018.9 |
| 20260830141705 | 84 | 262 | 1.7 | 1.7 | 0.00 | 0.00 | 0.00 | 69 | 1018.8 |
| 20260830141200 | 83 | 59 | 0.9 | 0.9 | 0.00 | 0.00 | 0.00 | 69 | 1018.8 |
| 20260830140655 | 82 | 73 | 0.9 | 0.9 | 0.00 | 0.00 | 0.00 | 71 | 1018.8 |
| 20260830140150 | 81 | 64 | 0.0 | 0.0 | 0.00 | 0.00 | 0.00 | 74 | 1018.8 |
| 20260830135645 | 81 | 210 | 2.6 | 3.5 | 0.00 | 0.00 | 0.00 | 72 | 1018.9 |
| 20260830135140 | 81 | 63 | 0.9 | 0.9 | 0.00 | 0.00 | 0.00 | 73 | 1018.8 |
| 20260830134636 | 80 | 41 | 0.9 | 0.9 | 0.00 | 0.00 | 0.00 | 75 | 1019.1 |
| 20260830134131 | 79 | 64 | 0.0 | 0.9 | 0.00 | 0.00 | 0.00 | 76 | 1019.0 |
| 20260830133627 | 78 | 327 | 1.7 | 1.7 | 0.00 | 0.00 | 0.00 | 77 | 1018.9 |
| 20260830133122 | 78 | 258 | 1.7 | 2.6 | 0.00 | 0.00 | 0.00 | 77 | 1019.2 |
| 20260830132618 | 77 | 5 | 0.9 | 1.7 | 0.00 | 0.00 | 0.00 | 80 | 1019.2 |
| 20260830132113 | 77 | 82 | 0.9 | 0.9 | 0.00 | 0.00 | 0.00 | 80 | 1019.1 |
| 20260830131612 | 78 | 64 | 1.7 | 1.7 | 0.00 | 0.00 | 0.00 | 79 | 1019.1 |
| 20260830131107 | 78 | 31 | 0.9 | 0.9 | 0.00 | 0.00 | 0.00 | 77 | 1019.0 |
| 20260830130601 | 77 | 56 | 0.0 | 0.0 | 0.00 | 0.00 | 0.00 | 80 | 1019.0 |
| 20260830130057 | 76 | 64 | 0.0 | 0.0 | 0.00 | 0.00 | 0.00 | 82 | 1019.0 |
| 20260830125551 | 76 | 49 | 0.0 | 0.9 | 0.00 | 0.00 | 0.00 | 81 | 1019.1 |
| 20260830125050 | 75 | 59 | 0.0 | 0.0 | 0.00 | 0.00 | 0.00 | 83 | 1019.1 |
| 20260830124549 | 73 | 60 | 0.0 | 0.0 | 0.00 | 0.00 | 0.00 | 87 | 1018.7 |
| 20260830124045 | 72 | 61 | 0.0 | 0.0 | 0.00 | 0.00 | 0.00 | 90 | 1018.7 |
| 20260830123542 | 71 | 60 | 0.0 | 0.0 | 0.00 | 0.00 | 0.00 | 94 | 1019.0 |
| 20260830123038 | 69 | 61 | 0.0 | 0.0 | 0.00 | 0.00 | 0.00 | 98 | 1018.8 |
| 20260830122533 | 68 | 59 | 0.0 | 0.0 | 0.00 | 0.00 | 0.00 | 98 | 1019.0 |
| 20260830122029 | 68 | 59 | 0.0 | 0.0 | 0.00 | 0.00 | 0.00 | 98 | 1018.8 |
| 20260830121525 | 67 | 59 | 0.0 | 0.0 | 0.00 | 0.00 | 0.00 | 98 | 1019.1 |
| 20260830121024 | 67 | 59 | 0.0 | 0.0 | 0.00 | 0.00 | 0.00 | 98 | 1018.7 |
| 20260830120520 | 67 | 60 | 0.0 | 0.0 | 0.00 | 0.00 | 0.00 | 98 | 1018.7 |
| 20260830120017 | 67 | 60 | 0.0 | 0.0 | 0.00 | 0.00 | 0.00 | 98 | 1018.7 |
| 20260830115513 | 67 | 60 | 0.0 | 0.0 | 0.00 | 0.00 | 0.00 | 98 | 1018.7 |
| 20260830115007 | 67 | 60 | 0.0 | 0.0 | 0.00 | 0.00 | 0.00 | 98 | 1018.4 |
| 20260830114504 | 67 | 60 | 0.0 | 0.0 | 0.00 | 0.00 | 0.00 | 98 | 1018.6 |
| 20260830114003 | 67 | 60 | 0.0 | 0.0 | 0.00 | 0.00 | 0.00 | 98 | 1018.3 |
| 20260830113458 | 67 | 60 | 0.0 | 0.0 | 0.00 | 0.00 | 0.00 | 98 | 1018.3 |
| 20260830112954 | 67 | 60 | 0.0 | 0.0 | 0.00 | 0.00 | 0.00 | 98 | 1018.4 |
| 20260830112450 | 66 | 59 | 0.0 | 0.0 | 0.00 | 0.00 | 0.00 | 98 | 1018.4 |
| 20260830111946 | 66 | 59 | 0.0 | 0.0 | 0.00 | 0.00 | 0.00 | 98 | 1018.4 |
| 20260830111441 | 66 | 59 | 0.0 | 0.0 | 0.00 | 0.00 | 0.00 | 98 | 1018.0 |
| 20260830110937 | 66 | 59 | 0.0 | 0.0 | 0.00 | 0.00 | 0.00 | 98 | 1018.0 |
| 20260830110432 | 66 | 59 | 0.0 | 0.0 | 0.00 | 0.00 | 0.00 | 98 | 1017.9 |
| 20260830105931 | 66 | 59 | 0.0 | 0.0 | 0.00 | 0.00 | 0.00 | 98 | 1017.9 |
| 20260830105428 | 66 | 59 | 0.0 | 0.0 | 0.00 | 0.00 | 0.00 | 98 | 1017.8 |
| 20260830104924 | 66 | 59 | 0.0 | 0.0 | 0.00 | 0.00 | 0.00 | 98 | 1018.0 |
| 20260830104420 | 66 | 59 | 0.0 | 0.0 | 0.00 | 0.00 | 0.00 | 98 | 1018.0 |
| 20260830103919 | 66 | 59 | 0.0 | 0.0 | 0.00 | 0.00 | 0.00 | 97 | 1017.7 |
| 20260830103415 | 66 | 59 | 0.0 | 0.0 | 0.00 | 0.00 | 0.00 | 97 | 1017.9 |
| 20260830102913 | 66 | 59 | 0.0 | 0.0 | 0.00 | 0.00 | 0.00 | 97 | 1017.9 |
| 20260830102409 | 66 | 59 | 0.0 | 0.0 | 0.00 | 0.00 | 0.00 | 97 | 1017.7 |
| 20260830101905 | 66 | 59 | 0.0 | 0.0 | 0.00 | 0.00 | 0.00 | 97 | 1017.9 |
| 20260830101400 | 66 | 59 | 0.0 | 0.0 | 0.00 | 0.00 | 0.00 | 97 | 1017.7 |
| 20260830100900 | 66 | 59 | 0.0 | 0.0 | 0.00 | 0.00 | 0.00 | 97 | 1017.7 |
| 20260830100359 | 66 | 59 | 0.0 | 0.0 | 0.00 | 0.00 | 0.00 | 97 | 1017.7 |
| 20260830095858 | 66 | 59 | 0.0 | 0.0 | 0.00 | 0.00 | 0.00 | 97 | 1017.6 |
| 20260830095354 | 66 | 59 | 0.0 | 0.0 | 0.00 | 0.00 | 0.00 | 97 | 1017.6 |
| 20260830094849 | 66 | 59 | 0.0 | 0.0 | 0.00 | 0.00 | 0.00 | 97 | 1017.7 |
| 20260830094346 | 66 | 59 | 0.0 | 0.0 | 0.00 | 0.00 | 0.00 | 96 | 1017.6 |
| 20260830093841 | 66 | 59 | 0.0 | 0.0 | 0.00 | 0.00 | 0.00 | 96 | 1017.5 |
| 20260830093336 | 66 | 59 | 0.0 | 0.0 | 0.00 | 0.00 | 0.00 | 96 | 1017.7 |
| 20260830092832 | 66 | 59 | 0.0 | 0.0 | 0.00 | 0.00 | 0.00 | 96 | 1017.7 |